When you browse on this site, cookies collect data to enhance your experience and personalize the content and advertising you see.
Visit our Privacy Policy to learn more. By continuing to use the site, you agree to this use of cookies and data.
  • En España
  • Lista de países
  • Para 7 días
  • Temperatura del agua
  • El tiempo en el mapa
  • Informadores
  • user-avatar
    Iniciar sesión

    Tiempo cada hora Vlasova Sloboda

    Hoy, 24 Agosto, Sábado

    Tiempo Temperatura Precipitaciones Viento Presión Humedad
    00:00 +12°C° 0 mm 0 mps 753 mmHg 85%
    01:00 +13°C° 0 mm 1 mps 753 mmHg 86%
    02:00 +13°C° 0 mm 1 mps 753 mmHg 86%
    03:00 +13°C° 0 mm 1 mps 753 mmHg 88%
    04:00 +12°C° 0 mm 1 mps 753 mmHg 89%
    05:00 +12°C° 0 mm 2 mps 753 mmHg 90%
    06:00 +14°C° 0 mm 2 mps 753 mmHg 85%
    07:00 +16°C° 0 mm 2 mps 753 mmHg 81%
    08:00 +17°C° 0 mm 2 mps 753 mmHg 77%
    09:00 +19°C° 0 mm 3 mps 752 mmHg 73%
    10:00 +20°C° 0 mm 3 mps 752 mmHg 69%
    11:00 +21°C° 0 mm 3 mps 752 mmHg 65%
    12:00 +22°C° 0 mm 3 mps 752 mmHg 64%
    13:00 +22°C° 0 mm 4 mps 752 mmHg 63%
    14:00 +23°C° 0 mm 4 mps 752 mmHg 62%
    15:00 +22°C° 0 mm 3 mps 751 mmHg 66%
    16:00 +22°C° 0 mm 3 mps 751 mmHg 70%
    17:00 +23°C° 0 mm 2 mps 751 mmHg 74%
    18:00 +20°C° 0 mm 2 mps 751 mmHg 78%
    19:00 +19°C° 0 mm 2 mps 751 mmHg 81%
    20:00 +17°C° 0 mm 2 mps 751 mmHg 85%
    21:00 +16°C° 0 mm 2 mps 751 mmHg 88%
    22:00 +16°C° 0 mm 2 mps 751 mmHg 90%
    23:00 +15°C° 0 mm 2 mps 751 mmHg 93%

    Mañana, 25 Agosto, Domingo

    Tiempo Temperatura Precipitaciones Viento Presión Humedad
    00:00 +15°C° 0 mm 2 mps 751 mmHg 93%
    01:00 +15°C° 0 mm 2 mps 752 mmHg 93%
    02:00 +14°C° 0 mm 1 mps 752 mmHg 93%
    03:00 +14°C° 0 mm 1 mps 752 mmHg 94%
    04:00 +13°C° 0 mm 2 mps 752 mmHg 94%
    05:00 +13°C° 0 mm 2 mps 752 mmHg 94%
    06:00 +15°C° 0 mm 2 mps 752 mmHg 89%
    07:00 +16°C° 0 mm 2 mps 753 mmHg 85%
    08:00 +17°C° 0 mm 2 mps 753 mmHg 80%
    09:00 +19°C° 0 mm 2 mps 753 mmHg 75%
    10:00 +20°C° 0 mm 2 mps 753 mmHg 69%
    11:00 +21°C° 0 mm 2 mps 753 mmHg 63%
    12:00 +21°C° 0 mm 2 mps 753 mmHg 61%
    13:00 +23°C° 0 mm 2 mps 753 mmHg 60%
    14:00 +22°C° 0 mm 3 mps 753 mmHg 59%
    15:00 +21°C° 0 mm 2 mps 753 mmHg 62%
    16:00 +21°C° 0 mm 2 mps 753 mmHg 66%
    17:00 +21°C° 0 mm 2 mps 753 mmHg 69%
    18:00 +20°C° 0 mm 1 mps 753 mmHg 74%
    19:00 +18°C° 0 mm 1 mps 753 mmHg 78%
    20:00 +15°C° 0 mm 1 mps 753 mmHg 83%
    21:00 +14°C° 0 mm 1 mps 754 mmHg 84%
    22:00 +14°C° 0 mm 1 mps 754 mmHg 86%
    23:00 +13°C° 0 mm 1 mps 754 mmHg 88%

    Pasado mañana, 26 Agosto, Lunes

    Tiempo Temperatura Precipitaciones Viento Presión Humedad
    00:00 +13°C° 0 mm 1 mps 754 mmHg 89%
    01:00 +12°C° 0 mm 1 mps 754 mmHg 90%
    02:00 +12°C° 0 mm 1 mps 754 mmHg 90%
    03:00 +12°C° 0 mm 1 mps 754 mmHg 90%
    04:00 +11°C° 0 mm 0 mps 754 mmHg 91%
    05:00 +10°C° 0 mm 0 mps 754 mmHg 91%
    06:00 +12°C° 0 mm 0 mps 754 mmHg 86%
    07:00 +14°C° 0 mm 0 mps 754 mmHg 81%
    08:00 +16°C° 0 mm 0 mps 754 mmHg 77%
    09:00 +17°C° 0 mm 0 mps 754 mmHg 72%
    10:00 +19°C° 0 mm 0 mps 754 mmHg 67%
    11:00 +22°C° 0 mm 1 mps 753 mmHg 62%
    12:00 +22°C° 0 mm 1 mps 753 mmHg 60%
    13:00 +23°C° 0 mm 1 mps 753 mmHg 58%
    14:00 +23°C° 0 mm 2 mps 753 mmHg 55%
    15:00 +23°C° 0 mm 2 mps 752 mmHg 60%
    16:00 +23°C° 0 mm 1 mps 752 mmHg 65%
    17:00 +22°C° 0 mm 1 mps 751 mmHg 69%
    18:00 +20°C° 0 mm 1 mps 751 mmHg 73%
    19:00 +18°C° 0 mm 1 mps 751 mmHg 77%
    20:00 +15°C° 0 mm 1 mps 751 mmHg 80%
    21:00 +15°C° 0 mm 1 mps 751 mmHg 81%
    22:00 +15°C° 0 mm 1 mps 751 mmHg 82%
    23:00 +15°C° 0 mm 1 mps 751 mmHg 83%

    27 Agosto, Martes

    Tiempo Temperatura Precipitaciones Viento Presión Humedad
    00:00 +15°C° 0 mm 2 mps 751 mmHg 85%
    01:00 +15°C° 0 mm 2 mps 750 mmHg 88%
    02:00 +15°C° 0 mm 2 mps 750 mmHg 91%
    03:00 +14°C° 0 mm 2 mps 750 mmHg 92%
    04:00 +14°C° 0 mm 2 mps 750 mmHg 93%
    05:00 +14°C° 0 mm 2 mps 750 mmHg 94%
    06:00 +14°C° 0 mm 3 mps 750 mmHg 91%
    07:00 +17°C° 0 mm 3 mps 750 mmHg 88%
    08:00 +18°C° 0 mm 3 mps 749 mmHg 85%
    09:00 +19°C° 0 mm 4 mps 749 mmHg 79%
    10:00 +21°C° 0 mm 4 mps 749 mmHg 73%
    11:00 +22°C° 0 mm 4 mps 749 mmHg 67%
    12:00 +22°C° 0 mm 5 mps 749 mmHg 66%
    13:00 +22°C° 0 mm 5 mps 749 mmHg 66%
    14:00 +23°C° 0 mm 5 mps 749 mmHg 65%
    15:00 +22°C° 0 mm 5 mps 749 mmHg 67%
    16:00 +21°C° 0 mm 4 mps 749 mmHg 69%
    17:00 +21°C° 0 mm 4 mps 749 mmHg 70%
    18:00 +19°C° 0 mm 4 mps 749 mmHg 72%
    19:00 +17°C° 0 mm 4 mps 749 mmHg 75%
    20:00 +14°C° 0 mm 3 mps 750 mmHg 77%
    21:00 +13°C° 0 mm 3 mps 750 mmHg 80%
    22:00 +12°C° 0 mm 3 mps 750 mmHg 83%
    23:00 +12°C° 0 mm 3 mps 751 mmHg 86%

    28 Agosto, Miércoles

    Tiempo Temperatura Precipitaciones Viento Presión Humedad
    00:00 +12°C° 0 mm 2 mps 751 mmHg 88%
    01:00 +12°C° 0 mm 2 mps 751 mmHg 91%
    02:00 +10°C° 0 mm 2 mps 751 mmHg 94%
    03:00 +10°C° 0 mm 2 mps 752 mmHg 94%
    04:00 +9°C° 0 mm 2 mps 752 mmHg 94%
    05:00 +10°C° 0 mm 1 mps 752 mmHg 94%
    06:00 +10°C° 0 mm 2 mps 752 mmHg 87%
    07:00 +13°C° 0 mm 2 mps 752 mmHg 81%
    08:00 +14°C° 0 mm 2 mps 753 mmHg 74%
    09:00 +15°C° 0 mm 2 mps 753 mmHg 68%
    10:00 +16°C° 0 mm 3 mps 753 mmHg 62%
    11:00 +18°C° 0 mm 3 mps 753 mmHg 56%
    12:00 +18°C° 0 mm 3 mps 753 mmHg 55%
    13:00 +18°C° 0 mm 3 mps 752 mmHg 54%
    14:00 +19°C° 0 mm 3 mps 752 mmHg 52%
    15:00 +18°C° 0 mm 3 mps 752 mmHg 57%
    16:00 +18°C° 0 mm 2 mps 752 mmHg 61%
    17:00 +18°C° 0 mm 2 mps 752 mmHg 66%
    18:00 +16°C° 0 mm 2 mps 752 mmHg 69%
    19:00 +14°C° 0 mm 2 mps 752 mmHg 72%
    20:00 +12°C° 0 mm 2 mps 752 mmHg 75%
    21:00 +12°C° 0 mm 2 mps 752 mmHg 75%
    22:00 +10°C° 0 mm 2 mps 752 mmHg 74%
    23:00 +9°C° 0 mm 2 mps 753 mmHg 74%

    29 Agosto, Jueves

    Tiempo Temperatura Precipitaciones Viento Presión Humedad
    00:00 +10°C° 0 mm 1 mps 753 mmHg 74%
    01:00 +9°C° 0 mm 1 mps 753 mmHg 75%
    02:00 +8°C° 0 mm 1 mps 753 mmHg 75%
    03:00 +8°C° 0 mm 1 mps 753 mmHg 75%
    04:00 +8°C° 0 mm 1 mps 753 mmHg 75%
    05:00 +7°C° 0 mm 1 mps 753 mmHg 76%
    06:00 +9°C° 0 mm 1 mps 753 mmHg 71%
    07:00 +11°C° 0 mm 1 mps 753 mmHg 67%
    08:00 +13°C° 0 mm 1 mps 753 mmHg 62%
    09:00 +14°C° 0 mm 1 mps 753 mmHg 58%
    10:00 +16°C° 0 mm 1 mps 753 mmHg 54%
    11:00 +18°C° 0 mm 1 mps 753 mmHg 50%
    12:00 +19°C° 0 mm 1 mps 752 mmHg 50%
    13:00 +19°C° 0 mm 1 mps 752 mmHg 50%
    14:00 +20°C° 0 mm 1 mps 752 mmHg 51%
    15:00 +20°C° 0 mm 1 mps 752 mmHg 55%
    16:00 +20°C° 0 mm 1 mps 752 mmHg 60%
    17:00 +18°C° 0 mm 0 mps 752 mmHg 65%
    18:00 +16°C° 0 mm 0 mps 751 mmHg 70%
    19:00 +15°C° 0 mm 1 mps 751 mmHg 75%
    20:00 +13°C° 0 mm 1 mps 751 mmHg 80%
    21:00 +13°C° 0 mm 1 mps 751 mmHg 82%
    22:00 +12°C° 0 mm 1 mps 751 mmHg 84%
    23:00 +12°C° 0 mm 1 mps 752 mmHg 87%
    Mostrar más